Probability
45 42 19 19 3 3 0 0 0 0 3 0 0 0 0 0 0 3 26 13 10 16 23 23 29 29 29 23 35 32 32 32 29 29 26 29 35 35 39 35 39 39 35 26 32 35 35 35 32
42 35 16 6 3 0 0 0 0 0 0 0 0 0 0 0 0 6 19 13 10 10 19 23 19 26 26 32 35 23 19 26 16 23 23 19 26 29 32 29 35 32 26 19 19 26 29 29 29
26 19 10 3 3 0 0 0 3 0 0 0 0 0 0 0 6 6 16 13 10 13 16 19 19 23 26 26 19 26 19 13 16 16 16 16 19 26 26 26 29 32 23 19 26 26 26 29 29
19 13 3 3 0 0 0 0 3 3 0 0 0 0 0 6 6 10 13 6 10 16 13 16 23 29 26 23 26 19 19 19 19 19 26 19 19 16 26 29 29 26 23 19 23 19 19 19 19
16 3 0 0 0 0 0 0 0 0 0 0 0 0 3 6 10 13 13 6 10 13 13 13 23 23 13 16 13 19 19 19 19 19 23 19 23 19 23 26 26 23 23 19 23 19 19 19 16
6 0 0 0 0 0 0 3 0 0 0 0 0 0 6 10 10 13 10 10 10 13 13 13 23 19 16 16 13 16 19 19 13 13 13 16 23 23 23 23 19 19 19 19 16 19 16 19 13
0 0 0 0 0 0 0 0 0 0 0 0 0 0 3 6 10 13 10 10 10 10 13 13 10 13 19 13 16 16 16 16 16 16 13 13 16 19 26 19 16 19 19 19 16 10 13 16 16
0 0 0 0 0 0 0 0 0 0 0 0 0 0 0 13 10 6 10 10 10 6 10 13 13 10 10 10 13 16 16 16 16 16 13 13 19 19 16 16 16 16 16 16 10 10 13 19 13
0 0 0 0 0 0 0 0 3 3 0 3 0 0 3 13 6 6 6 6 6 6 6 6 6 6 10 6 16 19 13 10 10 16 16 13 13 10 13 10 10 10 10 10 10 13 13 10 13
0 0 0 0 0 0 0 0 0 0 6 3 3 3 3 13 10 3 3 3 3 3 3 6 6 10 6 3 6 13 6 6 6 3 6 6 6 6 6 6 13 6 6 6 10 10 6 3 6
0 0 0 0 0 0 0 0 0 0 0 0 3 6 13 16 6 6 3 3 3 0 0 0 6 6 3 6 10 13 6 6 3 6 6 6 3 3 6 10 13 16 3 6 3 10 3 0 3
0 0 0 0 0 0 0 0 0 0 3 6 6 10 13 13 13 10 3 6 0 0 0 0 0 0 3 3 10 10 10 10 3 6 6 3 3 10 6 13 13 13 13 10 10 6 3 0 0
0 0 0 0 0 0 0 0 0 6 6 6 6 6 10 10 10 10 6 6 6 6 0 3 3 3 3 3 6 6 10 3 0 3 3 6 3 3 6 10 10 10 16 13 13 3 6 3 0
0 0 0 0 0 0 0 0 0 3 6 6 6 6 6 10 10 10 6 10 10 3 6 6 3 3 3 3 3 3 3 10 3 3 0 0 3 3 3 3 10 10 10 6 6 6 6 10 10
0 0 0 0 0 0 0 0 0 0 6 10 10 6 3 3 13 13 6 3 6 6 3 6 6 10 10 3 3 3 6 3 6 6 0 0 0 0 3 3 10 10 10 10 10 6 6 10 6
0 0 0 0 0 0 0 0 0 0 3 6 10 6 3 3 6 6 6 0 0 0 3 3 0 3 6 10 10 6 3 3 10 3 0 0 0 0 0 3 6 6 10 10 13 10 10 6 10
0 0 0 0 0 0 0 0 0 3 3 3 3 3 3 3 3 3 3 0 0 0 3 3 0 0 6 3 3 6 3 3 3 3 0 0 0 0 0 6 3 6 6 10 3 6 10 13 13
0 0 0 0 0 0 0 0 0 3 3 0 3 0 0 0 0 6 6 10 10 3 3 3 6 10 6 3 3 3 6 0 0 3 0 0 0 0 0 0 0 10 10 10 6 10 10 10 6
0 0 0 0 0 0 0 0 0 0 3 0 0 3 0 0 3 3 6 10 10 10 6 6 10 10 10 6 6 3 3 0 0 0 0 0 0 0 3 3 0 6 3 10 6 6 3 3 6
0 0 0 0 0 0 0 0 0 0 3 3 0 3 0 0 3 3 6 6 6 3 3 6 10 10 10 13 6 6 0 0 0 0 0 0 0 0 0 3 6 3 10 6 6 3 3 3 3
0 0 0 0 0 0 0 0 0 0 0 0 0 3 3 3 0 3 10 6 6 6 6 6 6 10 10 10 10 0 0 0 0 0 0 0 0 0 3 0 0 0 3 3 3 3 6 6 3
0 0 0 0 0 0 0 0 0 0 0 0 0 0 0 0 0 3 6 10 10 6 6 6 10 10 10 10 6 6 10 6 0 0 0 0 0 0 3 0 0 0 0 3 3 0 6 3 6
0 0 0 0 0 0 0 0 0 0 0 0 0 0 0 0 3 3 6 10 10 10 10 6 10 10 10 6 6 6 10 6 3 0 0 0 0 0 3 3 0 0 0 0 0 0 3 6 3
0 0 0 0 0 0 0 0 0 0 0 0 0 0 3 6 3 6 6 3 10 10 10 13 13 10 10 6 6 6 6 6 3 3 0 0 0 3 0 3 3 0 0 0 0 3 3 3 3
0 0 0 0 0 0 0 0 0 0 0 0 0 0 0 0 6 6 6 3 10 10 10 13 13 13 6 6 6 6 6 3 3 3 3 3 3 0 0 0 0 0 0 0 0 0 0 3 3
0 0 0 0 0 0 0 0 0 0 0 0 0 0 0 0 3 3 3 3 6 10 13 13 13 13 10 6 6 6 6 3 3 6 3 3 3 3 3 3 0 0 0 0 0 0 0 0 3
0 0 0 0 0 0 0 0 0 0 0 0 0 0 0 0 0 3 0 0 3 10 13 13 13 13 13 6 6 6 3 3 6 6 3 3 3 3 6 3 3 0 0 0 0 0 0 0 0
0 0 0 0 0 0 0 0 0 0 0 0 0 0 0 0 0 0 3 0 3 10 10 10 10 16 13 10 6 6 3 3 6 6 3 3 3 3 3 3 3 3 0 0 0 0 0 0 0
0 0 0 0 0 0 0 0 0 0 0 0 0 0 0 0 0 0 6 6 6 10 10 10 6 10 10 10 13 6 6 3 3 10 3 3 3 3 3 3 3 3 3 0 0 0 0 0 0
0 0 0 0 0 0 0 0 0 0 0 0 0 0 0 0 0 0 3 3 3 6 10 10 10 10 10 13 16 13 10 10 6 6 6 6 6 6 3 3 3 3 3 3 3 0 0 0 0
Height
5867 5867 5868 5869 5871 5871 5870 5871 5870 5871 5871 5871 5871 5872 5872 5872 5873 5875 5873 5872 5872 5872 5872 5872 5872 5872 5872 5872 5872 5872 5872 5872 5872 5872 5873 5873 5873 5873 5873 5873 5873 5872 5872 5872 5872 5872 5872 5872 5871
5866 5867 5868 5869 5869 5869 5870 5869 5870 5870 5870 5870 5870 5870 5871 5871 5871 5871 5871 5871 5871 5871 5871 5871 5871 5871 5871 5871 5871 5871 5871 5871 5871 5871 5872 5872 5872 5872 5872 5872 5872 5872 5871 5871 5871 5871 5871 5871 5871
5865 5866 5867 5868 5868 5868 5868 5868 5868 5868 5869 5869 5869 5869 5869 5869 5869 5870 5869 5869 5869 5869 5870 5870 5870 5870 5870 5869 5869 5868 5868 5868 5869 5870 5870 5870 5871 5871 5871 5871 5871 5870 5870 5870 5870 5870 5870 5870 5870
5864 5865 5866 5866 5866 5867 5867 5867 5867 5867 5867 5867 5868 5868 5868 5868 5868 5868 5868 5868 5868 5868 5868 5868 5868 5868 5868 5867 5866 5865 5865 5866 5867 5867 5868 5869 5869 5869 5870 5869 5869 5869 5869 5869 5869 5869 5868 5868 5868
5863 5863 5864 5864 5864 5865 5865 5865 5865 5865 5866 5866 5866 5866 5866 5866 5866 5866 5866 5866 5867 5867 5867 5867 5867 5867 5866 5865 5864 5863 5862 5863 5865 5865 5866 5867 5867 5867 5868 5868 5868 5868 5868 5867 5867 5867 5867 5867 5867
5862 5862 5863 5863 5863 5863 5863 5864 5864 5864 5864 5864 5865 5865 5864 5864 5865 5865 5865 5865 5865 5865 5865 5865 5865 5865 5865 5864 5863 5862 5861 5862 5863 5864 5864 5865 5865 5866 5866 5866 5866 5866 5866 5866 5866 5866 5865 5865 5865
5861 5861 5861 5861 5861 5861 5862 5862 5862 5862 5863 5863 5863 5864 5863 5863 5863 5863 5863 5863 5864 5864 5864 5864 5864 5864 5863 5863 5862 5861 5861 5861 5861 5861 5862 5863 5863 5864 5864 5864 5864 5864 5864 5864 5864 5864 5864 5864 5864
5858 5859 5859 5859 5860 5860 5860 5860 5860 5860 5861 5861 5862 5862 5862 5862 5862 5862 5862 5862 5862 5862 5862 5862 5862 5862 5862 5862 5861 5861 5860 5859 5858 5858 5859 5860 5861 5861 5862 5862 5862 5862 5862 5862 5862 5862 5862 5862 5862
5856 5858 5857 5858 5858 5858 5858 5859 5859 5859 5859 5860 5860 5860 5860 5860 5860 5860 5860 5860 5861 5861 5861 5861 5861 5860 5860 5860 5860 5860 5859 5858 5856 5855 5856 5857 5859 5859 5860 5860 5861 5861 5861 5861 5860 5860 5860 5860 5860
5855 5856 5856 5856 5856 5856 5856 5857 5857 5857 5858 5858 5858 5858 5858 5859 5859 5859 5859 5859 5859 5859 5859 5859 5859 5859 5859 5859 5859 5858 5858 5857 5855 5854 5854 5856 5857 5857 5858 5858 5858 5859 5859 5859 5858 5858 5858 5858 5858
5853 5853 5854 5854 5854 5854 5854 5855 5855 5856 5856 5856 5856 5857 5856 5857 5857 5857 5857 5857 5857 5857 5857 5857 5857 5857 5857 5858 5857 5857 5857 5856 5855 5854 5854 5855 5855 5856 5856 5856 5856 5856 5856 5856 5856 5856 5856 5856 5855
5851 5851 5851 5851 5851 5852 5852 5853 5853 5854 5854 5854 5854 5854 5854 5855 5855 5855 5855 5855 5855 5856 5856 5855 5855 5856 5856 5856 5856 5855 5855 5855 5855 5854 5854 5854 5854 5854 5854 5854 5854 5854 5854 5854 5853 5853 5853 5853 5853
5848 5849 5849 5849 5849 5849 5850 5850 5851 5851 5852 5852 5852 5852 5852 5852 5852 5853 5853 5853 5853 5853 5853 5854 5854 5853 5854 5854 5854 5854 5853 5853 5853 5853 5852 5852 5852 5852 5852 5851 5851 5851 5851 5851 5851 5851 5850 5850 5850
5846 5846 5846 5846 5847 5847 5847 5848 5849 5849 5849 5850 5850 5850 5850 5850 5850 5850 5851 5851 5851 5851 5851 5851 5851 5851 5851 5852 5852 5852 5851 5851 5851 5850 5850 5850 5849 5849 5849 5849 5849 5848 5848 5848 5848 5847 5847 5847 5847
5843 5844 5844 5844 5844 5844 5845 5846 5846 5847 5847 5847 5847 5848 5848 5848 5848 5848 5848 5848 5848 5849 5849 5849 5849 5849 5849 5849 5849 5849 5849 5848 5848 5848 5847 5847 5847 5846 5846 5846 5846 5845 5845 5845 5844 5844 5844 5843 5843
5840 5841 5841 5842 5842 5842 5844 5844 5844 5844 5844 5845 5845 5845 5845 5845 5845 5846 5846 5846 5846 5847 5847 5847 5847 5847 5847 5847 5847 5846 5846 5845 5845 5845 5844 5844 5844 5844 5843 5843 5843 5842 5841 5841 5841 5840 5840 5839 5839
5838 5838 5839 5839 5839 5839 5840 5841 5841 5841 5842 5842 5842 5842 5843 5843 5843 5843 5843 5843 5843 5844 5844 5844 5845 5845 5845 5844 5844 5843 5843 5842 5842 5842 5841 5841 5841 5840 5840 5840 5839 5839 5838 5837 5837 5836 5836 5836 5836
5836 5835 5836 5836 5836 5837 5837 5838 5838 5838 5839 5839 5839 5840 5840 5840 5840 5840 5840 5840 5841 5841 5841 5841 5842 5842 5841 5841 5840 5840 5840 5839 5839 5838 5838 5838 5837 5837 5837 5836 5836 5835 5835 5834 5833 5833 5832 5832 5832
5832 5832 5833 5833 5833 5834 5834 5835 5835 5835 5836 5836 5836 5837 5837 5837 5837 5837 5837 5838 5838 5838 5838 5838 5838 5838 5838 5837 5837 5836 5836 5836 5835 5835 5835 5834 5834 5833 5833 5832 5832 5831 5831 5830 5830 5829 5829 5828 5828
5829 5829 5830 5830 5830 5831 5831 5832 5832 5832 5833 5833 5833 5834 5834 5834 5834 5834 5834 5834 5835 5835 5835 5835 5835 5834 5834 5834 5833 5833 5832 5832 5832 5831 5831 5830 5830 5830 5829 5829 5828 5827 5827 5826 5826 5825 5825 5824 5823
5826 5827 5827 5827 5827 5827 5828 5829 5829 5829 5830 5830 5830 5830 5831 5831 5831 5831 5831 5831 5831 5831 5831 5831 5831 5831 5830 5830 5829 5829 5829 5828 5828 5827 5827 5826 5826 5826 5825 5824 5824 5823 5823 5822 5822 5821 5820 5820 5819
5823 5823 5823 5823 5824 5824 5825 5825 5826 5826 5826 5827 5827 5827 5827 5827 5827 5827 5827 5827 5828 5828 5828 5827 5827 5827 5826 5826 5825 5825 5824 5824 5824 5823 5823 5822 5822 5821 5821 5820 5819 5819 5818 5817 5817 5816 5816 5815 5814
5819 5819 5820 5820 5820 5821 5821 5822 5823 5822 5823 5823 5824 5824 5824 5824 5824 5824 5824 5824 5824 5824 5824 5823 5823 5823 5822 5822 5821 5821 5820 5820 5820 5819 5819 5818 5818 5817 5816 5815 5814 5814 5813 5812 5812 5811 5811 5810 5809
5816 5816 5816 5816 5816 5817 5818 5818 5819 5819 5819 5820 5820 5820 5820 5820 5820 5820 5820 5820 5820 5820 5820 5819 5819 5819 5818 5818 5818 5817 5816 5816 5815 5815 5814 5814 5813 5812 5811 5810 5810 5809 5808 5807 5807 5806 5806 5805 5804
5812 5813 5813 5813 5813 5813 5814 5813 5815 5815 5815 5816 5816 5816 5816 5816 5816 5816 5816 5816 5816 5816 5816 5816 5815 5815 5814 5814 5813 5813 5812 5811 5811 5810 5810 5809 5808 5807 5806 5805 5805 5804 5803 5802 5801 5801 5800 5799 5799
5808 5809 5810 5810 5810 5809 5809 5809 5811 5810 5810 5811 5812 5812 5812 5812 5812 5812 5812 5812 5812 5812 5812 5812 5811 5811 5810 5809 5809 5808 5807 5806 5806 5805 5804 5803 5802 5801 5801 5800 5799 5798 5797 5797 5796 5795 5794 5793 5793
5804 5804 5806 5806 5805 5805 5805 5806 5806 5806 5806 5807 5807 5808 5808 5808 5808 5808 5808 5808 5808 5808 5808 5807 5807 5806 5806 5805 5804 5803 5802 5802 5801 5799 5798 5797 5796 5795 5794 5794 5793 5792 5791 5791 5790 5789 5788 5787 5786
5801 5801 5801 5801 5801 5801 5801 5801 5802 5801 5802 5802 5803 5803 5803 5803 5803 5803 5804 5804 5804 5804 5803 5803 5802 5802 5801 5800 5799 5798 5797 5796 5795 5794 5793 5791 5790 5789 5788 5787 5786 5786 5785 5784 5783 5782 5782 5781 5779
5796 5796 5796 5796 5796 5797 5797 5799 5797 5796 5797 5797 5798 5798 5798 5798 5798 5799 5799 5799 5799 5798 5798 5798 5797 5797 5796 5795 5794 5793 5792 5791 5789 5788 5786 5785 5784 5782 5781 5780 5779 5778 5778 5777 5776 5775 5774 5773 5772
5791 5791 5792 5792 5792 5791 5792 5795 5792 5792 5792 5792 5793 5793 5793 5793 5793 5793 5793 5793 5793 5793 5793 5792 5792 5791 5790 5789 5788 5787 5786 5785 5783 5782 5780 5778 5777 5775 5774 5773 5772 5771 5770 5769 5768 5767 5766 5765 5764
Wind_Speed
4 4 4 4 4 4 4 5 5 5 5 5 5 5 5 5 5 5 5 5 5 5 6 6 5 4 5 5 5 5 6 6 6 6 5 5 5 5 5 4 4 5 4 4 4 4 4 4 3
4 5 5 5 5 5 5 5 5 5 5 5 6 6 5 5 6 6 6 6 6 6 6 5 6 6 6 6 6 7 7 7 7 7 7 6 6 6 6 5 5 6 5 5 5 5 5 5 5
5 6 6 6 6 6 6 6 6 6 6 6 6 7 6 6 6 6 6 6 6 6 6 6 6 7 7 7 7 8 8 9 9 9 8 7 7 8 7 7 7 6 6 6 6 6 6 6 6
6 6 6 7 6 6 6 7 7 7 7 7 7 7 7 6 7 7 7 7 6 6 6 6 7 8 7 7 7 7 8 9 9 9 9 9 8 9 8 8 8 8 7 7 7 7 7 6 7
6 5 6 6 6 7 7 7 7 8 7 7 7 7 7 7 7 7 7 7 6 6 6 6 7 7 7 7 6 6 7 8 8 9 9 9 9 9 9 9 8 8 8 8 8 8 7 7 7
5 5 6 6 7 7 7 7 8 8 8 7 7 7 7 6 7 7 7 7 6 6 7 7 7 6 6 6 6 6 6 7 9 9 9 9 9 9 9 9 9 9 9 9 9 9 8 8 8
5 5 6 7 8 8 7 7 8 8 8 7 7 7 7 7 7 7 7 7 6 7 7 7 7 7 7 6 6 6 6 6 7 8 9 9 9 9 9 9 9 9 9 9 9 9 9 9 9
6 6 6 7 8 8 8 8 8 8 8 8 8 7 6 6 7 7 6 7 6 6 6 7 7 7 7 6 6 7 6 6 7 8 8 9 9 8 9 9 9 9 9 9 9 9 9 9 9
6 6 7 8 8 9 8 8 8 8 8 8 7 8 8 8 8 8 8 7 7 7 7 7 7 7 7 7 7 7 7 7 7 7 8 9 8 9 9 9 9 9 9 9 9 9 10 10 10
7 7 7 8 8 9 9 9 8 8 8 8 8 8 8 8 8 8 8 8 7 7 7 7 8 7 7 7 7 8 7 7 7 7 8 8 8 9 9 9 9 10 10 10 10 10 10 10 11
7 8 8 8 8 9 9 9 9 8 8 8 8 8 9 9 9 9 8 8 8 8 8 8 9 8 8 8 8 8 8 8 7 7 8 8 9 9 10 10 10 10 10 11 11 11 11 11 11
8 8 8 8 8 9 9 10 10 9 10 10 9 9 9 9 10 10 9 9 9 9 9 9 9 9 8 9 9 9 10 9 8 9 9 10 10 10 11 11 11 11 11 12 12 12 12 12 13
8 8 8 9 9 10 10 10 10 10 10 11 11 10 10 10 10 10 11 11 10 10 10 9 9 9 9 9 10 10 10 10 10 11 11 11 11 11 12 12 12 12 13 13 13 13 13 13 13
9 9 9 9 9 10 10 11 10 10 10 10 11 11 10 10 10 10 11 11 11 11 11 11 11 10 10 10 10 10 11 11 11 12 12 12 12 12 12 12 13 13 14 14 14 14 14 15 14
9 10 10 10 10 10 10 11 10 10 10 10 10 10 10 10 10 11 11 11 12 12 12 11 11 11 11 11 11 12 12 12 12 13 12 12 12 12 12 13 13 14 14 15 15 15 16 15 15
10 10 10 10 10 11 11 11 11 11 11 11 10 10 10 10 10 11 11 12 12 12 13 12 12 12 12 13 13 13 13 12 12 13 13 13 13 13 13 13 13 14 15 15 16 16 16 16 16
10 11 10 10 10 11 11 11 11 11 11 11 11 11 11 11 11 11 11 12 12 12 13 13 13 13 14 14 14 14 13 13 13 13 13 13 14 14 14 14 14 14 14 15 15 15 16 16 16
10 10 11 11 11 11 11 11 11 11 12 12 11 11 11 11 11 11 12 12 12 13 13 13 14 14 14 14 15 15 14 14 13 13 14 14 15 15 15 15 15 14 14 14 14 15 15 16 17
11 11 11 11 11 12 11 12 12 12 12 12 11 11 11 11 12 12 12 12 13 13 13 13 14 14 15 15 15 15 15 15 15 14 15 15 15 15 15 15 15 15 15 15 14 14 15 16 17
10 10 11 11 11 11 11 12 12 12 12 12 12 11 11 11 12 13 13 13 13 13 13 13 14 14 15 15 15 15 15 16 15 15 15 15 16 16 16 16 16 16 16 16 15 15 16 16 17
10 10 11 12 12 12 12 12 12 12 12 12 12 12 12 12 13 13 13 13 13 13 13 13 14 14 14 14 15 15 15 16 16 16 16 16 16 17 17 17 17 17 17 17 17 17 17 17 18
12 12 12 13 13 13 13 13 13 13 13 12 12 12 13 13 13 13 13 13 13 13 13 13 14 13 13 14 14 15 15 16 16 16 16 16 17 17 17 18 18 17 17 17 18 18 18 19 19
12 12 13 13 13 14 13 14 14 13 14 13 12 13 13 13 13 13 13 13 13 13 13 14 14 14 13 13 14 14 15 15 15 16 16 16 16 17 17 18 18 18 18 18 19 19 19 19 19
13 13 13 13 14 14 14 15 15 15 15 15 14 14 13 13 13 13 13 13 13 13 13 13 13 14 14 14 15 15 15 15 15 16 16 17 17 17 18 18 18 18 18 18 19 20 20 21 21
13 13 13 13 14 15 14 15 15 16 16 15 15 14 14 13 13 13 13 13 14 14 13 14 15 15 15 15 15 16 16 16 17 17 18 18 18 18 18 18 19 19 19 19 20 20 21 22 22
13 13 14 14 15 15 14 15 15 15 15 15 15 15 15 14 14 14 14 14 15 14 14 15 15 15 15 16 16 16 17 17 18 18 18 19 19 19 19 19 19 19 19 20 20 21 21 22 22
13 14 14 15 15 15 15 15 15 15 15 15 15 15 15 15 15 14 15 15 15 15 15 15 16 16 17 17 18 18 18 18 19 19 20 20 20 20 21 21 20 20 20 20 20 21 22 22 23
14 14 14 15 15 15 16 16 16 16 15 15 15 15 15 15 15 16 16 15 15 15 16 16 17 17 18 18 19 19 20 20 20 20 20 21 21 21 21 22 22 22 22 22 22 22 23 23 23
14 15 15 16 16 16 16 16 17 17 16 15 15 15 16 16 16 16 17 16 16 16 16 17 18 19 19 19 19 20 20 20 20 21 22 22 21 21 22 22 22 23 23 23 23 24 24 24 24
15 15 16 16 17 17 17 17 18 18 18 17 17 17 17 17 17 17 17 17 17 18 18 19 20 20 19 20 21 21 21 21 22 22 23 23 23 23 24 24 24 25 25 25 25 26 26 25 26
Wind_Direction
223 224 225 220 221 227 223 217 217 211 212 216 215 211 210 216 216 217 214 212 213 221 226 230 241 248 247 252 256 255 249 237 226 225 226 227 227 230 236 249 238 236 237 240 245 249 248 238 229
236 235 234 232 233 236 235 233 228 228 230 231 230 225 223 223 223 224 221 220 220 226 231 235 238 247 249 250 254 257 253 244 237 233 231 237 241 242 246 253 251 247 246 245 249 249 248 245 240
250 244 239 237 235 236 236 235 232 232 238 240 241 239 237 235 230 228 229 226 229 233 237 239 240 251 255 254 256 257 252 247 243 239 239 244 248 249 249 250 254 255 254 248 253 253 250 250 250
252 247 241 239 238 237 234 234 237 239 240 243 245 245 244 246 240 237 236 232 239 240 241 243 246 252 256 261 266 263 255 250 247 241 244 247 249 248 247 249 251 252 256 254 252 253 252 251 254
251 245 243 243 243 240 236 239 243 242 246 249 246 242 242 245 245 242 239 238 242 246 246 244 247 252 258 262 265 264 250 244 246 245 245 246 245 246 246 247 250 251 255 255 255 251 252 253 255
252 248 247 246 245 243 239 240 242 240 242 241 240 237 237 241 247 244 241 244 249 252 255 256 254 256 261 262 260 256 252 250 248 248 248 248 249 250 251 248 251 253 253 253 254 253 252 248 252
253 250 246 246 244 243 238 239 240 245 245 242 246 250 247 243 249 252 252 253 254 258 260 261 261 261 265 266 264 259 253 250 250 249 250 251 251 252 253 252 253 252 253 254 254 253 252 250 251
251 251 250 248 246 243 240 241 242 244 246 248 248 245 249 250 249 253 256 254 253 257 258 258 258 258 262 265 264 263 263 262 258 255 250 249 251 249 250 253 256 256 256 255 256 254 255 252 255
251 251 251 249 247 246 243 244 244 247 247 244 245 247 249 250 250 253 253 255 256 258 258 259 258 259 262 262 264 267 273 270 265 256 248 246 248 251 255 254 254 256 257 258 260 260 259 257 256
250 251 254 253 251 249 248 248 249 251 248 246 249 252 254 254 253 255 255 256 256 256 257 259 257 258 260 262 264 265 270 273 267 259 252 250 253 257 257 256 255 256 258 260 262 263 258 259 258
252 251 254 253 252 251 250 249 250 250 246 247 251 257 259 259 256 255 258 254 255 254 252 254 256 260 261 262 266 268 267 272 263 257 259 258 260 258 257 259 260 259 261 262 264 265 263 262 262
255 251 250 248 249 251 250 250 250 249 250 254 257 259 259 261 260 259 259 256 257 256 251 250 255 261 264 265 268 268 270 273 268 264 265 265 263 260 259 261 262 263 265 266 267 265 266 263 261
254 254 253 251 252 250 250 250 251 250 252 254 255 257 258 259 259 259 258 259 260 259 257 254 255 259 264 268 270 271 274 274 271 269 267 266 266 263 261 261 265 267 268 269 269 267 265 265 260
255 254 255 256 256 253 253 251 250 252 254 256 256 260 257 256 255 255 257 258 259 260 261 263 266 268 269 270 271 273 274 272 273 272 269 266 267 266 264 265 267 269 269 270 270 267 266 265 265
257 257 256 256 256 255 252 246 249 251 253 256 256 255 256 257 256 257 260 260 259 259 259 262 265 267 270 273 276 275 275 273 272 272 268 267 266 267 268 268 269 270 272 273 271 268 267 266 268
260 260 258 255 254 253 250 247 247 250 254 255 255 256 259 260 260 260 261 260 259 258 257 260 263 266 268 270 273 276 278 277 275 273 270 270 269 268 268 269 270 271 274 273 271 270 267 266 266
262 260 257 254 253 251 251 250 248 250 253 254 256 256 256 260 263 262 263 261 260 259 260 261 264 267 270 272 272 275 277 278 278 274 270 272 272 271 270 270 273 275 276 275 273 270 269 268 266
266 261 257 253 253 249 250 252 251 251 253 255 258 257 257 259 262 263 264 261 261 262 264 266 267 270 272 274 275 275 275 275 277 275 271 273 273 275 273 272 274 275 276 277 276 274 271 268 267
263 259 256 253 254 250 249 251 251 250 251 253 255 257 259 260 264 264 264 263 263 265 267 268 270 271 273 275 276 276 275 276 276 275 274 272 272 274 276 275 274 274 274 276 276 274 273 270 269
261 259 256 254 252 250 250 251 250 249 250 252 253 255 260 263 264 265 265 265 265 267 268 269 271 271 272 273 274 274 274 275 275 276 277 275 272 273 274 277 276 275 276 276 275 274 274 273 271
262 260 259 257 257 254 254 252 252 250 251 254 254 256 260 265 267 268 266 266 267 266 268 270 272 272 271 271 272 273 273 274 275 275 275 275 274 275 277 276 277 277 277 275 274 273 274 274 273
265 262 261 261 260 259 256 253 251 252 251 254 255 256 261 265 267 267 267 267 268 266 270 274 273 271 270 271 272 273 273 274 275 275 276 276 276 277 279 278 278 276 276 275 274 273 274 275 274
267 264 262 261 261 260 258 255 251 251 251 253 254 257 261 264 265 266 267 265 266 267 273 276 274 273 272 274 276 276 275 275 275 275 276 277 278 280 280 280 279 277 277 277 276 275 275 275 275
266 264 263 260 261 261 258 257 253 250 251 253 255 258 261 263 264 264 263 262 263 267 271 275 274 275 275 277 279 279 278 277 276 276 278 279 281 282 280 280 280 280 278 277 277 276 275 275 275
263 264 265 265 262 261 259 257 255 253 252 254 256 257 259 262 262 261 262 262 262 266 270 272 274 275 277 279 280 281 280 280 278 279 280 280 279 280 280 280 280 280 278 277 277 276 275 276 275
262 261 260 263 265 264 262 260 257 253 252 253 255 256 259 262 261 260 262 263 264 266 268 270 273 276 277 280 280 280 279 280 280 280 280 279 279 279 279 279 280 281 280 279 279 278 278 276 275
262 261 261 264 265 267 266 262 257 254 254 255 254 256 259 261 260 259 261 262 264 267 269 272 274 277 278 278 278 280 280 279 281 281 281 281 280 281 280 279 280 280 280 279 279 280 280 278 275
265 262 263 266 269 270 269 266 262 256 255 257 256 255 257 259 259 262 262 262 264 266 270 274 276 279 279 278 278 279 280 280 283 283 282 281 281 282 280 279 279 279 279 279 281 281 279 278 276
266 264 263 266 266 268 270 267 263 261 259 258 257 256 257 259 260 261 262 263 263 266 271 274 276 278 279 280 280 282 282 283 285 287 285 283 282 281 280 280 279 279 279 279 280 281 279 278 277
265 264 264 266 267 268 268 267 265 263 261 260 260 259 260 260 260 261 263 264 266 268 270 272 275 277 277 278 279 281 283 284 286 287 287 285 283 283 282 280 279 279 279 280 280 280 280 278 277